Lacon, IL

7:45 PM CDT on August 18, 2017 (GMT -0500)
Lacon

Weather History for KC75 - March, 2013

Change the Weather History Date:

Sunday, March 17, 2013

  Actual Average (KVYS) Record (KVYS)
Temperature  
Mean Temperature 32 °F -  
Max Temperature 35 °F 47 °F 80 °F (2012)
Min Temperature 28 °F 27 °F 10 °F (1993)
Degree Days  
Heating Degree Days 34    
Moisture  
Dew Point 24 °F    
Average Humidity 73    
Maximum Humidity 83    
Minimum Humidity 62    
Precipitation  
Precipitation 0.00 in - - ()
Sea Level Pressure  
Sea Level Pressure 30.09 in    
Wind  
Wind Speed 7 mph (ENE)    
Max Wind Speed 15 mph    
Max Gust Speed 21 mph    
Visibility 10 miles    
Events      
Averages and records for this station are not official NWS values.
T = Trace of Precipitation, MM = Missing Value Source: NWS Daily Summary

Daily Weather History Graph

Daily Weather History Graph

Search for Another Location

Airport or City:

Trip Planner

Search our weather history database for the weather conditions in past years. The results will help you decide how hot, cold, wet, or windy it might be!

Date:

Astronomy

Mar. 17, 2013 Rise Set
Actual Time 7:05 AM CDT 7:06 PM CDT
Civil Twilight 6:37 AM CDT 7:33 PM CDT
Nautical Twilight 6:05 AM CDT 8:05 PM CDT
Astronomical Twilight 5:33 AM CDT 8:38 PM CDT
Moon 10:15 AM CDT (3/17) 12:16 AM CDT (3/17)
Length of Visible Light 12h 56m
Length of Day
12h 01m
Waxing Crescent, 31% of the Moon is Illuminated
Mar 17
Waxing Crescent
Mar 19
First Quarter
Mar 27
Full
Apr 2
Last Quarter
Apr 10
New

Hourly Weather History & Observations

Time (CDT) Temp. Windchill Dew Point Humidity Pressure Visibility Wind Dir Wind Speed Gust Speed Precip Events Conditions
12:15 AM 29.7 °F - 24.8 °F 82% 30.12 in 10.0 mi Calm Calm - N/A   Unknown
12:35 AM 29.7 °F - 24.4 °F 81% 30.13 in 10.0 mi Calm Calm - N/A   Unknown
12:55 AM 29.7 °F 26.1 °F 24.3 °F 80% 30.12 in 10.0 mi NE 3.5 mph - N/A   Unknown
1:15 AM 29.7 °F - 24.1 °F 80% 30.13 in 10.0 mi Calm Calm - N/A   Unknown
1:35 AM 29.3 °F - 24.3 °F 81% 30.12 in 10.0 mi Calm Calm - N/A   Unknown
1:55 AM 29.7 °F - 23.9 °F 79% 30.13 in 10.0 mi Calm Calm - N/A   Unknown
2:15 AM 30.0 °F 24.1 °F 25.3 °F 83% 30.12 in 10.0 mi North 5.8 mph - N/A   Unknown
2:35 AM 29.8 °F 23.0 °F 24.8 °F 81% 30.11 in 10.0 mi North 6.9 mph - N/A   Unknown
2:55 AM 29.8 °F 23.0 °F 24.8 °F 81% 30.11 in 10.0 mi North 6.9 mph - N/A   Unknown
3:15 AM 30.2 °F 20.8 °F 23.9 °F 77% 30.11 in 10.0 mi North 11.5 mph - N/A   Unknown
3:35 AM 30.2 °F 21.9 °F 23.4 °F 76% 30.11 in 10.0 mi NNE 9.2 mph - N/A   Unknown
3:55 AM 29.7 °F 22.8 °F 22.5 °F 75% 30.11 in 10.0 mi NNE 6.9 mph - N/A   Unknown
4:15 AM 29.7 °F 23.7 °F 22.1 °F 73% 30.12 in 10.0 mi NE 5.8 mph - N/A   Unknown
4:35 AM 29.3 °F 23.2 °F 22.3 °F 75% 30.11 in 10.0 mi NE 5.8 mph - N/A   Unknown
4:55 AM 29.3 °F 23.2 °F 22.6 °F 76% 30.13 in 10.0 mi NNE 5.8 mph - N/A   Unknown
5:15 AM 29.1 °F 24.1 °F 22.5 °F 76% 30.14 in 10.0 mi NE 4.6 mph - N/A   Unknown
5:35 AM 29.3 °F 21.5 °F 21.9 °F 74% 30.14 in 10.0 mi NNE 8.1 mph - N/A   Unknown
5:55 AM 29.1 °F 23.0 °F 22.3 °F 76% 30.15 in 10.0 mi NNE 5.8 mph - N/A   Unknown
6:15 AM 28.9 °F 23.9 °F 22.8 °F 78% 30.16 in 10.0 mi NE 4.6 mph - N/A   Unknown
6:35 AM 28.9 °F 19.8 °F 21.2 °F 73% 30.16 in 10.0 mi NE 10.4 mph - N/A   Unknown
6:55 AM 28.9 °F 19.8 °F 21.2 °F 73% 30.16 in 10.0 mi NE 10.4 mph - N/A   Unknown
7:15 AM 28.4 °F 19.1 °F 20.1 °F 71% 30.17 in 10.0 mi NE 10.4 mph - N/A   Unknown
7:35 AM 28.4 °F 19.1 °F 20.3 °F 72% 30.16 in 10.0 mi NE 10.4 mph - N/A   Unknown
7:55 AM 28.2 °F 20.2 °F 20.3 °F 72% 30.16 in 10.0 mi NE 8.1 mph - N/A   Unknown
8:15 AM 28.4 °F 20.4 °F 20.7 °F 73% 30.17 in 10.0 mi NE 8.1 mph - N/A   Unknown
8:35 AM 28.8 °F 20.9 °F 21.0 °F 73% 30.18 in 10.0 mi ENE 8.1 mph - N/A   Unknown
8:55 AM 29.1 °F 21.3 °F 21.4 °F 73% 30.17 in 10.0 mi ENE 8.1 mph - N/A   Unknown
9:15 AM 29.3 °F 23.2 °F 21.2 °F 72% 30.18 in 10.0 mi ENE 5.8 mph - N/A   Unknown
9:35 AM 29.8 °F 20.9 °F 21.6 °F 71% 30.18 in 10.0 mi ENE 10.4 mph - N/A   Unknown
9:55 AM 30.7 °F 20.9 °F 21.4 °F 68% 30.18 in 10.0 mi ENE 12.7 mph - N/A   Unknown
10:15 AM 31.3 °F 21.6 °F 21.4 °F 67% 30.18 in 10.0 mi ENE 12.7 mph 16.1 mph N/A   Unknown
10:35 AM 32.0 °F 23.6 °F 22.1 °F 67% 30.18 in 10.0 mi East 10.4 mph - N/A   Unknown
10:55 AM 32.0 °F 23.0 °F 22.1 °F 67% 30.18 in 10.0 mi East 11.5 mph 17.3 mph N/A   Unknown
11:15 AM 32.0 °F 23.6 °F 22.3 °F 67% 30.17 in 10.0 mi ENE 10.4 mph 19.6 mph N/A   Unknown
11:35 AM 32.4 °F 24.0 °F 22.5 °F 67% 30.17 in 10.0 mi East 10.4 mph 17.3 mph N/A   Unknown
11:55 AM 32.4 °F 23.0 °F 21.7 °F 65% 30.16 in 10.0 mi East 12.7 mph 19.6 mph N/A   Unknown
12:15 PM 32.9 °F 24.1 °F 22.3 °F 65% 30.16 in 10.0 mi East 11.5 mph 16.1 mph N/A   Unknown
12:35 PM 33.3 °F 24.1 °F 22.1 °F 64% 30.15 in 10.0 mi East 12.7 mph 17.3 mph N/A   Unknown
12:55 PM 33.4 °F 24.8 °F 22.6 °F 65% 30.14 in 10.0 mi East 11.5 mph 18.4 mph N/A   Unknown
1:15 PM 34.9 °F 26.6 °F 23.2 °F 62% 30.13 in 10.0 mi ESE 11.5 mph - N/A   Unknown
1:35 PM 34.3 °F 25.9 °F 23.0 °F 63% 30.13 in 10.0 mi East 11.5 mph - N/A   Unknown
1:55 PM 34.0 °F 26.6 °F 23.4 °F 65% 30.11 in 10.0 mi East 9.2 mph 18.4 mph N/A   Unknown
2:15 PM 34.5 °F 25.7 °F 23.9 °F 65% 30.10 in 10.0 mi East 12.7 mph 18.4 mph N/A   Unknown
2:35 PM 35.1 °F 25.5 °F 23.7 °F 63% 30.09 in 10.0 mi ESE 15.0 mph - N/A   Unknown
2:55 PM 34.7 °F 27.5 °F 23.9 °F 65% 30.08 in 10.0 mi East 9.2 mph 19.6 mph N/A   Unknown
3:15 PM 34.7 °F 26.4 °F 24.3 °F 66% 30.07 in 10.0 mi ESE 11.5 mph 17.3 mph N/A   Unknown
3:35 PM 35.1 °F 26.9 °F 25.3 °F 68% 30.07 in 10.0 mi East 11.5 mph 16.1 mph N/A   Unknown
3:55 PM 34.9 °F 27.1 °F 24.8 °F 67% 30.06 in 10.0 mi East 10.4 mph - N/A   Unknown
4:15 PM 34.9 °F 26.6 °F 25.0 °F 67% 30.06 in 10.0 mi East 11.5 mph 18.4 mph N/A   Unknown
4:35 PM 34.7 °F 26.9 °F 25.3 °F 69% 30.05 in 10.0 mi ESE 10.4 mph 17.3 mph N/A   Unknown
4:55 PM 34.7 °F 26.9 °F 25.3 °F 69% 30.05 in 10.0 mi ESE 10.4 mph 18.4 mph N/A   Unknown
5:15 PM 34.7 °F 26.9 °F 25.5 °F 69% 30.05 in 10.0 mi East 10.4 mph 17.3 mph N/A   Unknown
5:35 PM 34.2 °F 26.2 °F 25.5 °F 71% 30.04 in 10.0 mi East 10.4 mph 19.6 mph N/A   Unknown
5:55 PM 34.0 °F 25.5 °F 25.9 °F 72% 30.03 in 10.0 mi East 11.5 mph - N/A   Unknown
6:15 PM 33.8 °F 24.8 °F 26.1 °F 73% 30.03 in 10.0 mi East 12.7 mph 17.3 mph N/A   Unknown
6:35 PM 33.3 °F 25.1 °F 25.7 °F 74% 30.02 in 10.0 mi East 10.4 mph 17.3 mph N/A   Unknown
6:55 PM 32.9 °F 26.7 °F 26.4 °F 77% 30.03 in 10.0 mi East 6.9 mph 16.1 mph N/A   Unknown
7:15 PM 32.2 °F 24.4 °F 26.6 °F 80% 30.03 in 10.0 mi East 9.2 mph - N/A   Unknown
7:35 PM 32.2 °F 24.4 °F 26.4 °F 79% 30.01 in 10.0 mi East 9.2 mph - N/A   Unknown
7:55 PM 32.2 °F 24.4 °F 26.6 °F 80% 30.00 in 10.0 mi East 9.2 mph - N/A   Unknown
8:15 PM 32.0 °F 23.0 °F 26.1 °F 79% 30.00 in 10.0 mi East 11.5 mph 17.3 mph N/A   Unknown
8:35 PM 32.0 °F 22.5 °F 26.1 °F 79% 29.99 in 10.0 mi East 12.7 mph 20.7 mph N/A   Unknown
8:55 PM 32.0 °F 23.0 °F 26.2 °F 79% 30.00 in 10.0 mi East 11.5 mph 16.1 mph N/A   Unknown
9:15 PM 32.2 °F 25.0 °F 26.2 °F 79% 29.99 in 10.0 mi East 8.1 mph 18.4 mph N/A   Unknown
9:35 PM 32.4 °F 24.0 °F 26.1 °F 78% 29.99 in 10.0 mi East 10.4 mph 17.3 mph N/A   Unknown
9:55 PM 32.4 °F 23.5 °F 25.7 °F 76% 29.97 in 10.0 mi East 11.5 mph 19.6 mph N/A   Unknown
10:15 PM 32.4 °F 22.5 °F 25.7 °F 76% 29.95 in 10.0 mi East 13.8 mph 19.6 mph N/A   Unknown
10:35 PM 32.4 °F 22.1 °F 25.7 °F 76% 29.95 in 10.0 mi East 15.0 mph 19.6 mph N/A   Unknown
10:55 PM 32.4 °F 22.5 °F 26.2 °F 78% 29.94 in 10.0 mi East 13.8 mph 20.7 mph N/A   Unknown
11:15 PM 32.5 °F 22.7 °F 26.6 °F 79% 29.94 in 10.0 mi East 13.8 mph 18.4 mph N/A   Unknown
11:35 PM 32.5 °F 23.2 °F 27.1 °F 80% 29.93 in 10.0 mi East 12.7 mph 18.4 mph N/A   Unknown
11:55 PM 32.5 °F 22.7 °F 26.6 °F 79% 29.93 in 10.0 mi East 13.8 mph 19.6 mph N/A   Unknown